星链-5039 (STARLINK-5039 )

导读

STARLINK-5039是美国太空探索技术公司(SpaceX)星链卫星互联网项目的组网卫星,于2023年7月7日发射入轨。它属于星链第二代低轨卫星,将填补全球卫星互联网覆盖盲区,为偏远地区、空中及海上用户提供高速低延迟网络服务,助力SpaceX构建全球互联的低轨卫星星座。

基本信息
目录编号:
57247
目录名称:
STARLINK-5039
国际标识:
2023-094AF
轨道中心:
EARTH
卫星名称:
星链-5039
卫星全名:
星链-5039 (STARLINK-5039 )
卫星状态:
在轨 (已飞行1074 天)
发射日期:
2023-07-07 UTC
国别 :
美国 (US)
星等 :
--
轨道信息
数据来源 国际轨道数据 AOE轨道数据
星历时间 2026-06-15T02:51:01+0800
12小时前
查看轨道信息
2026-06-15T05:00:00+0800
10小时前
查看轨道信息
半长轴 6861.199km 6861.188km
偏心率 0.0001508 0.0001331
轨道倾角 43.005° 43.000°
近地点辐角 289.750° 249.232°
升交点赤经 191.188° 190.682°
平近点角 70.318° 244.005°
近地点 482.027km 482.137km
远地点 484.097km 483.965km
周期 94.267分钟 94.267分钟
每日圈数 15.27576 15.275795
详细信息
固有亮度:
5
最大亮度:
2.4
卫星平台:
Starlink v1.5
覆盖范围:
全球
运营商:
太空探索技术公司
运营商所在国:
美国
制造商(研发单位):
太空探索技术公司
制造商所在国:
美国
使用方式:
暂无
卫星简介
星链(Starlink)计划是由太空探索技术公司(SpaceX)提出的一个巨型低轨卫星互联网星座项目,计划在2019年至2024年间在太空搭建由约1.2万颗卫星组成的“星链”网络,其中1584颗将部署在地球上空550千米处的近地轨道,并从2020年开始工作。该卫星仍在工作。
2D轨道图
3D轨道图
轨道高度分析图
轨道倾角分析图
轨道综合分析图
查看轨道综合分析图